Home   Weather   Zittau   Past weeks

Flag for Germany Past Weather in Zittau, Saxony, Germany — Yesterday and Last 2 Weeks

47 °F


Feels Like: 47 °F
Forecast: 37 / 51 °F
Wind: 2 mph from Northwest

Location: Liberec

Current Time: Oct 26, 2016 at 4:23:08 AM

Latest Report: Oct 26, 2016 at 3:00 AM

Visibility: 3 mi

Pressure: 30.29 "Hg

Humidity: 97%

Dew Point: 46 °F

Location of ZittauLocation

Past Weather in Zittau — Graph


Zittau Temperature Yesterday

Maximum temperature yesterday: 52 °F (at 3:00 AM)
Minimum temperature yesterday: 47 °F (at 9:00 PM)
Average temperature yesterday: 50 °F

High & Low Weather Summary for the Past Weeks

High57 °F (Oct 16, 3:00 PM)98% (Oct 16, 11:00 PM)30.34 "Hg (Oct 16, 11:00 PM)
Low36 °F (Oct 17, 6:00 AM)60% (Oct 19, 2:00 PM)29.88 "Hg (Oct 15, 7:00 AM)
Average45 °F87%30.08 "Hg
* Reported Oct 11 3:00 AM — Oct 26 3:00 AM, Zittau, Weather by CustomWeather, © 2016

Note: Actual official high and low records may vary slightly from our data, if they occured in-between our weather recording intervals... More about our weather records


Zittau Weather History for the Previous 24 Hours

Scroll right to see more
Time TempWeatherWind HumidityBarometerVisibility
3:00 AM
Wed, Oct 26
47 °FFog.2 mph97%30.29 "Hg3 mi
2:00 AM47 °FFog.2 mph97%30.28 "Hg2 mi
1:00 AM47 °FFog.2 mph97%30.28 "Hg1 mi
12:00 AM47 °FCool.1 mph97%30.27 "Hg1 mi
11:00 PM
Tue, Oct 25
47 °FLight rain. Overcast.1 mph97%30.27 "Hg2 mi
10:00 PM47 °FFog.1 mph97%30.27 "Hg1 mi
9:00 PM47 °FFog.2 mph97%30.26 "Hg1 mi
8:00 PM48 °FFog.1 mph97%30.23 "Hg1 mi
7:00 PM48 °FCool.1 mph97%30.23 "Hg2 mi
6:00 PM48 °FFog.1 mph97%30.21 "Hg2 mi
5:00 PM48 °FLow clouds.1 mph97%30.19 "Hg1 mi
4:00 PM49 °FFog.1 mph95%30.18 "Hg1 mi
3:00 PM49 °FFog.1 mph93%30.16 "Hg2 mi
2:00 PM50 °FFog.2 mph93%30.15 "Hg5 mi
1:00 PM50 °FFog.2 mph94%30.14 "Hg6 mi
12:00 PM51 °FFog.3 mph92%30.13 "Hg6 mi
11:00 AM51 °FFog.1 mph96%30.10 "Hg2 mi
10:00 AM51 °FLow clouds.1 mph96%30.09 "Hg3 mi
9:00 AM50 °FLight rain. Low clouds.3 mph95%30.07 "Hg2 mi
8:00 AM51 °FLight rain. Low clouds.3 mph96%30.04 "Hg3 mi
7:00 AM51 °FRain. Overcast.3 mph95%30.03 "Hg2 mi
6:00 AM52 °FRain. Overcast.3 mph96%30.02 "Hg2 mi
5:00 AM51 °FLight rain. Overcast.3 mph94%29.99 "Hg2 mi
4:00 AM52 °FLight rain. Overcast.3 mph92%30.00 "Hg2 mi
Weather by CustomWeather, © 2016

See weather overviewHow to use our weather pages